Torna al catalogo

ARSAT 2

AttivoComunicazioniGEO
NORAD 40941·PAYLOAD·🇦🇷 Argentina

Lanciato Sep 30, 2015 da Guiana Space Centre

Loading…

TLE

AggiornatoSource: Space-Track

Epoca: Sep 14, 2026, 13:25 UTC

1 40941U 15054B   26257.55911082 -.00000233  00000-0  00000-0 0  9995
2 40941   0.0191  78.0915 0001809  86.6142 309.1105  1.00272295 40209

Traccia ARSAT 2 in tempo reale con AllMySat

Download on the App Store